Regional Weather Roundup
Issued by NWS

Home | Current Version | Previous Version | Text Only | Print | Product List | Glossary Off
Versions: 1 2 3 4 5 6 7 8 9 10 11 12 13 14 15 16 17 18 19 20 21 22 23 24 25 26 27 28 29 30 31 32 33 34 35 36 37 38 39 40 41 42 43 44 45 46 47 48 49 50

000
ASUS43 KLSX 290407
RWRMO

WEATHER SUMMARY FOR MISSOURI
NATIONAL WEATHER SERVICE SPRINGFIELD MO
1000 PM CST WED JAN 28 2015

NOTE: "FAIR" INDICATES FEW OR NO CLOUDS BELOW 12,000 FEET WITH NO
       SIGNIFICANT WEATHER AND/OR OBSTRUCTIONS TO VISIBILITY.
       CURRENT SKY AND/OR WEATHER CONDITIONS ARE NOT AVAILABLE FOR
       CHILLICOTHE AND FARMINGTON.

MOZ001>031-035>038-043-044-053-054-290500-
...NORTHERN AND WESTERN MISSOURI...

CITY           SKY/WX    TMP DP  RH WIND       PRES   REMARKS
KANSAS CTY INT PTCLDY    54  36  50 W8        29.78R
KANSAS C DTWN  MOCLDY    60  36  40 W12       29.77R
LEE`S SUMMIT   MOCLDY    58  38  47 SW12      29.78R
ST JOSEPH      FAIR      54  36  50 NW15      29.78R
CHILLICOTHE      N/A     52  39  61 SW5       29.72R
KIRKSVILLE     PTCLDY    53  38  56 SW16G26   29.68F

$$
MOZ066>068-077>081-088>096-101>105-290500-
...SOUTHWEST MISSOURI...

CITY           SKY/WX    TMP DP  RH WIND       PRES   REMARKS
SPRINGFIELD    PTCLDY    55  40  56 S15       29.86S
JOPLIN         CLOUDY    63  41  44 SW14      29.88R

$$
MOZ032>034-039>042-045>050-055>058-069>072-290500-
...CENTRAL MISSOURI...

CITY           SKY/WX    TMP DP  RH WIND       PRES   REMARKS
COLUMBIA       PTCLDY    52  36  54 S13       29.78S
JEFFERSON CITY PTCLDY    53  36  52 S12       29.80F
ROLLA          PTCLDY    48  35  60 S18G26    29.83F
SEDALIA        MOCLDY    58  39  49 SW13      29.78S
WHITEMAN AFB   PTCLDY    59  41  51 SW14      29.77S
WARRENSBURG    PTCLDY    57  39  51 SW14      29.77S
OSAGE BEACH    PTCLDY    54  36  50 S12       29.83S

$$
MOZ051-052-059>065-290500-
...EAST CENTRAL MISSOURI...

CITY           SKY/WX    TMP DP  RH WIND       PRES   REMARKS
ST LOUIS INTL  CLOUDY    47  33  58 S8        29.86F
SPIRIT OF STL  CLOUDY    48  34  58 VRB3      29.84F
ST CHARLES     CLOUDY    42  35  76 S10       29.86F

$$
MOZ072>076-082>087-097>100-106>115-290500-
...SOUTH CENTRAL AND SOUTHEAST MISSOURI...

CITY           SKY/WX    TMP DP  RH WIND       PRES   REMARKS
CAPE GIRARDEAU CLOUDY    43  32  65 S7        30.00F
FARMINGTON     CLOUDY    46  34  61 S18G24    29.95F
POPLAR BLUFF   CLOUDY    42  34  73 SE6       29.99F
WEST PLAINS    MOCLDY    47  35  63 S7        29.96S

$$



USA.gov is the U.S. government's official web portal to all federal, state and local government web resources and services.